DW5963 Weather Reports


time (UTC)temp
C
wind
direction
speed
KPH
gust
KPH
rain 1hr
cm
rain 24hr
cm
rain mn
cm
humidity
%
barometer
mb
20260903162039 20 360 6.4 0.0 0.00 0.00 0.00 75 1005.4
20260903161538 20 360 6.4 0.0 0.00 0.00 0.00 75 1005.5
20260903161038 20 360 4.8 0.0 0.00 0.00 0.00 75 1005.6
20260903160539 20 360 3.2 0.0 0.00 0.00 0.00 75 1005.4
20260903160039 20 360 4.8 0.0 0.00 0.00 0.00 75 1005.4
20260903155542 20 360 4.8 0.0 0.00 0.00 0.00 75 1005.5
20260903155039 20 360 4.8 0.0 0.00 0.00 0.00 76 1005.5
20260903154538 20 360 6.4 0.0 0.00 0.00 0.00 75 1005.6
20260903153537 20 360 6.4 0.0 0.00 0.00 0.00 76 1005.4
20260903153037 20 360 3.2 0.0 0.00 0.00 0.00 77 1005.5
20260903152537 19 360 3.2 0.0 0.00 0.00 0.00 78 1005.2
20260903152042 19 360 4.8 0.0 0.00 0.00 0.00 79 1005.0
20260903151536 18 360 6.4 0.0 0.00 0.00 0.00 80 1004.7
20260903151037 18 360 6.4 0.0 0.00 0.00 0.00 80 1005.2
20260903150537 18 360 9.7 0.0 0.00 0.00 0.00 80 1005.4
20260903150038 18 360 9.7 0.0 0.00 0.00 0.00 80 1005.5
20260903145538 18 360 9.7 0.0 0.00 0.00 0.00 81 1005.3
20260903145036 18 360 14.5 0.0 0.00 0.00 0.00 82 1004.1
20260903144537 18 360 14.5 0.0 0.00 0.00 0.00 82 1003.8
20260903143535 18 360 11.3 0.0 0.00 0.00 0.00 82 1003.8
20260903143036 18 360 9.7 0.0 0.00 0.00 0.00 82 1004.1
20260903142536 18 360 12.9 0.0 0.00 0.00 0.00 82 1004.2
20260903142036 17 360 11.3 0.0 0.00 0.00 0.00 83 1003.7
20260903141536 17 360 8.0 0.0 0.00 0.00 0.00 84 1004.4
20260903141037 17 360 4.8 0.0 0.00 0.00 0.00 84 1004.6
20260903140539 17 360 3.2 0.0 0.00 0.00 0.00 84 1005.6
20260903140035 17 360 8.0 0.0 0.00 0.00 0.00 84 1006.1
20260903135534 17 360 8.0 0.0 0.00 0.00 0.00 85 1006.4
20260903135036 17 360 3.2 0.0 0.00 0.00 0.00 85 1005.4
20260903134533 17 360 1.6 0.0 0.00 0.00 0.00 84 1005.7
20260903133532 17 360 8.0 0.0 0.00 0.00 0.00 85 1005.9
20260903133032 17 360 9.7 0.0 0.00 0.00 0.00 86 1005.2
20260903132531 17 360 8.0 0.0 0.00 0.00 0.00 86 1004.8
20260903132031 17 360 6.4 0.0 0.00 0.00 0.00 87 1005.0
20260903131531 16 360 4.8 0.0 0.00 0.00 0.00 88 1005.1
20260903131031 16 360 1.6 0.0 0.00 0.00 0.00 89 1005.2
20260903130530 15 360 0.0 0.0 0.00 0.00 0.00 90 1005.4
20260903130031 15 360 1.6 0.0 0.00 0.00 0.00 89 1005.2
20260903125531 15 360 1.6 0.0 0.00 0.00 0.00 88 1005.0
20260903125028 15 360 3.2 0.0 0.00 0.00 0.00 87 1004.4
20260903124527 15 360 4.8 0.0 0.00 0.00 0.00 87 1004.2
20260903123527 15 360 1.6 0.0 0.00 0.00 0.00 86 1004.1
20260903123027 15 360 0.0 0.0 0.00 0.00 0.00 85 1004.1
20260903122526 15 360 0.0 0.0 0.00 0.00 0.00 84 1004.1
20260903122024 16 360 0.0 0.0 0.00 0.00 0.00 85 1004.0
20260903121524 16 360 1.6 0.0 0.00 0.00 0.00 85 1004.0
20260903121023 16 360 1.6 0.0 0.00 0.00 0.00 85 1004.1
20260903120523 16 360 1.6 0.0 0.00 0.00 0.00 85 1004.1
20260903120022 16 360 3.2 0.0 0.00 0.00 0.00 86 1004.0
20260903115522 16 360 6.4 0.0 0.00 0.00 0.00 86 1004.0
20260903115021 16 360 6.4 0.0 0.00 0.00 0.00 85 1004.0
20260903114521 16 360 4.8 0.0 0.00 0.00 0.00 85 1003.4
20260903113521 16 360 3.2 0.0 0.00 0.00 0.00 84 1003.9
20260903113032 16 360 3.2 0.0 0.00 0.00 0.00 84 1004.5
20260903112522 16 360 1.6 0.0 0.00 0.00 0.00 83 1004.5
20260903112023 16 360 3.2 0.0 0.00 0.00 0.00 83 1004.0
20260903111519 16 360 4.8 0.0 0.00 0.00 0.00 83 1003.5
20260903111019 16 360 6.4 0.0 0.00 0.00 0.00 83 1003.6
20260903110521 16 360 8.0 0.0 0.00 0.00 0.00 83 1003.6
20260903110039 16 360 8.0 0.0 0.00 0.00 0.00 83 1003.4
20260903105517 17 360 9.7 0.0 0.00 0.00 0.00 83 1003.5
20260903105018 17 360 14.5 0.0 0.00 0.00 0.00 83 1003.7
20260903104517 17 360 17.7 0.0 0.00 0.00 0.00 84 1003.5
20260903103520 17 360 20.9 0.0 0.00 0.00 0.00 84 1003.6
20260903103015 17 360 22.5 0.0 0.00 0.00 0.00 84 1003.6
20260903102514 17 360 22.5 0.0 0.00 0.00 0.00 83 1003.6
20260903102013 17 360 20.9 0.0 0.00 0.00 0.00 84 1003.6
20260903101513 17 360 17.7 0.0 0.00 0.00 0.00 84 1003.8
20260903101012 17 360 17.7 0.0 0.00 0.00 0.00 83 1003.4
20260903100511 17 360 17.7 0.0 0.00 0.00 0.00 83 1003.4
20260903100009 17 360 17.7 0.0 0.00 0.00 0.00 82 1003.5
20260903095508 17 360 17.7 0.0 0.00 0.00 0.00 81 1003.7
20260903095007 17 360 17.7 0.0 0.00 0.00 0.00 79 1003.7
20260903094520 18 360 16.1 0.0 0.00 0.00 0.00 75 1003.7
20260903093508 19 360 14.5 0.0 0.00 0.00 0.00 70 1003.5
20260903093006 19 360 14.5 0.0 0.00 0.00 0.00 69 1003.4
20260903092505 19 360 14.5 0.0 0.00 0.00 0.00 70 1003.5
20260903092005 19 360 11.3 0.0 0.00 0.00 0.00 71 1003.6
20260903091504 18 360 9.7 0.0 0.00 0.00 0.00 73 1003.8
20260903091004 18 360 9.7 0.0 0.00 0.00 0.00 74 1003.7
20260903090504 18 360 9.7 0.0 0.00 0.00 0.00 75 1003.6
20260903090004 18 360 11.3 0.0 0.00 0.00 0.00 76 1003.9
20260903085503 18 360 11.3 0.0 0.00 0.00 0.00 76 1004.0
20260903085003 18 360 11.3 0.0 0.00 0.00 0.00 76 1004.0
20260903084502 18 360 9.7 0.0 0.00 0.00 0.00 76 1004.2
20260903083501 18 360 9.7 0.0 0.00 0.00 0.00 75 1004.5
20260903083002 18 360 9.7 0.0 0.00 0.00 0.00 75 1004.6
20260903082600 18 360 9.7 0.0 0.00 0.00 0.00 75 1004.5
20260903082101 18 360 9.7 0.0 0.00 0.00 0.00 75 1004.5
20260903081612 18 360 9.7 0.0 0.00 0.00 0.00 75 1004.6
20260903081059 18 360 9.7 0.0 0.00 0.00 0.00 74 1004.5
20260903080600 18 360 14.5 0.0 0.00 0.00 0.00 74 1004.4
20260903080058 18 360 17.7 0.0 0.00 0.00 0.00 72 1004.6
20260903075557 19 360 16.1 0.0 0.00 0.00 0.00 71 1004.5
20260903075055 19 360 17.7 0.0 0.00 0.00 0.00 69 1004.5
20260903074605 20 360 17.7 0.0 0.00 0.00 0.00 67 1004.6
20260903073552 21 360 17.7 0.0 0.00 0.00 0.00 61 1004.8
20260903073050 22 360 12.9 0.0 0.00 0.00 0.00 60 1004.8
20260903072550 23 360 6.4 0.0 0.00 0.00 0.00 65 1004.8
20260903072050 23 360 4.8 0.0 0.00 0.00 0.00 65 1004.7
20260903071553 23 360 8.0 0.0 0.00 0.00 0.00 66 1004.8
20260903071049 23 360 14.5 0.0 0.00 0.00 0.00 66 1004.9
20260903070553 22 360 20.9 0.0 0.00 0.00 0.00 66 1004.9
20260903070050 22 360 16.1 0.0 0.00 0.00 0.00 68 1004.8
20260903065551 22 360 12.9 0.0 0.00 0.00 0.00 67 1004.5
20260903065049 22 360 14.5 0.0 0.00 0.00 0.00 67 1002.8
20260903064551 22 360 16.1 0.0 0.00 0.00 0.00 67 1002.9
20260903063550 22 360 17.7 0.0 0.00 0.00 0.00 68 1002.5
20260903063049 22 360 16.1 0.0 0.00 0.00 0.00 68 1002.3
20260903062553 22 360 16.1 0.0 0.00 0.00 0.00 68 1002.2
20260903062047 22 360 14.5 0.0 0.00 0.00 0.00 68 1002.1
20260903061553 22 360 16.1 0.0 0.00 0.00 0.00 67 1002.2
20260903061048 22 360 14.5 0.0 0.00 0.00 0.00 66 1002.3
20260903060548 22 360 14.5 0.0 0.00 0.00 0.00 66 1002.4
20260903060051 22 360 16.1 0.0 0.00 0.00 0.00 65 1002.7
20260903055547 22 360 16.1 0.0 0.00 0.00 0.00 65 1002.7
20260903055047 22 360 17.7 0.0 0.00 0.00 0.00 65 1002.8
20260903054550 22 360 16.1 0.0 0.00 0.00 0.00 65 1002.8
20260903053550 22 360 16.1 0.0 0.00 0.00 0.00 67 1002.9
20260903053104 22 360 17.7 0.0 0.00 0.00 0.00 67 1002.8
20260903052548 22 360 16.1 0.0 0.00 0.00 0.00 68 1002.6
20260903052050 22 360 14.5 0.0 0.00 0.00 0.00 68 1002.3
20260903051552 22 360 16.1 0.0 0.00 0.00 0.00 68 1002.2
20260903051046 22 360 14.5 0.0 0.00 0.00 0.00 68 1002.1
20260903050548 22 360 14.5 0.0 0.00 0.00 0.00 69 1002.3
20260903050045 22 360 14.5 0.0 0.00 0.00 0.00 69 1002.2
20260903045545 22 360 12.9 0.0 0.00 0.00 0.00 69 1002.4
20260903045043 22 360 12.9 0.0 0.00 0.00 0.00 68 1002.7
20260903044552 22 360 12.9 0.0 0.00 0.00 0.00 68 1002.9
20260903043545 22 360 12.9 0.0 0.00 0.00 0.00 68 1003.2
20260903043043 22 360 12.9 0.0 0.00 0.00 0.00 68 1003.3
20260903042544 22 360 12.9 0.0 0.00 0.00 0.00 68 1003.3
20260903042044 22 360 11.3 0.0 0.00 0.00 0.00 68 1003.5
20260903041543 22 360 11.3 0.0 0.00 0.00 0.00 68 1003.6
20260903041042 22 360 11.3 0.0 0.00 0.00 0.00 68 1003.7
20260903040543 22 360 11.3 0.0 0.00 0.00 0.00 67 1003.7
20260903040043 22 360 11.3 0.0 0.00 0.00 0.00 67 1003.7
20260903035542 22 360 9.7 0.0 0.00 0.00 0.00 67 1003.8
20260903035042 23 360 9.7 0.0 0.00 0.00 0.00 67 1003.9
20260903034542 23 360 11.3 0.0 0.00 0.00 0.00 66 1003.7
20260903033543 23 360 12.9 0.0 0.00 0.00 0.00 66 1003.8
20260903033041 23 360 12.9 0.0 0.00 0.00 0.00 65 1003.7
20260903032541 23 360 14.5 0.0 0.00 0.00 0.00 65 1003.7
20260903032040 23 360 14.5 0.0 0.00 0.00 0.00 65 1003.7
20260903031540 23 360 14.5 0.0 0.00 0.00 0.00 64 1003.7
20260903031040 23 360 14.5 0.0 0.00 0.00 0.00 64 1003.7
20260903030540 23 360 14.5 0.0 0.00 0.00 0.00 64 1003.6
20260903030044 23 360 12.9 0.0 0.00 0.00 0.00 64 1003.7
20260903025540 23 360 12.9 0.0 0.00 0.00 0.00 64 1003.8
20260903025040 23 360 12.9 0.0 0.00 0.00 0.00 64 1003.9
20260903024545 23 360 14.5 0.0 0.00 0.00 0.00 64 1003.7
20260903023542 24 120 16.1 0.0 0.00 0.00 0.00 62 1003.5
20260903023041 24 121 16.1 0.0 0.00 0.00 0.00 62 1003.5
20260903022540 25 115 16.1 0.0 0.00 0.00 0.00 62 1003.6
20260903022040 25 123 17.7 0.0 0.00 0.00 0.00 61 1003.8
20260903021546 25 114 17.7 0.0 0.00 0.00 0.00 61 1003.9
20260903021039 25 126 19.3 0.0 0.00 0.00 0.00 60 1003.9
20260903020540 25 116 19.3 0.0 0.00 0.00 0.00 60 1003.8
20260903020039 25 126 19.3 0.0 0.00 0.00 0.00 60 1003.6
20260903015540 25 121 20.9 0.0 0.00 0.00 0.00 60 1003.5
20260903015038 25 123 19.3 0.0 0.00 0.00 0.00 59 1003.5
20260903014543 25 128 19.3 0.0 0.00 0.00 0.00 59 1003.5
20260903013540 26 360 17.7 0.0 0.00 0.00 0.00 58 1003.6
20260903013040 26 360 17.7 0.0 0.00 0.00 0.00 58 1003.6
20260903012539 26 360 17.7 0.0 0.00 0.00 0.00 57 1003.6
20260903012039 26 360 19.3 0.0 0.00 0.00 0.00 57 1003.4
20260903011542 26 360 19.3 0.0 0.00 0.00 0.00 56 1003.4
20260903011039 27 360 19.3 0.0 0.00 0.00 0.00 55 1003.4
20260903010539 27 360 19.3 0.0 0.00 0.00 0.00 54 1003.3
20260903010039 27 360 19.3 0.0 0.00 0.00 0.00 54 1003.3
20260903005541 27 360 19.3 0.0 0.00 0.00 0.00 53 1003.3
20260903005038 27 360 19.3 0.0 0.00 0.00 0.00 52 1003.3
20260903004542 28 360 19.3 0.0 0.00 0.00 0.00 52 1003.3
20260903003537 28 360 20.9 0.0 0.00 0.00 0.00 51 1003.3
20260903003036 28 360 19.3 0.0 0.00 0.00 0.00 50 1003.2
20260903002537 28 360 17.7 0.0 0.00 0.00 0.00 50 1003.2
20260903002036 28 360 17.7 0.0 0.00 0.00 0.00 50 1003.3
20260903001536 28 360 17.7 0.0 0.00 0.00 0.00 50 1003.2
20260903001035 28 360 19.3 0.0 0.00 0.00 0.00 48 1003.3
20260903000535 29 360 22.5 0.0 0.00 0.00 0.00 47 1003.3
20260903000035 29 360 22.5 0.0 0.00 0.00 0.00 47 1003.3
20260902235535 29 360 20.9 0.0 0.00 0.00 0.00 47 1003.2
20260902235033 30 360 20.9 0.0 0.00 0.00 0.00 48 1003.4
20260902234533 30 360 20.9 0.0 0.00 0.00 0.00 48 1003.4
20260902233533 30 360 20.9 0.0 0.00 0.00 0.00 46 1003.6
20260902233037 30 360 20.9 0.0 0.00 0.00 0.00 45 1003.6
20260902232533 30 360 19.3 0.0 0.00 0.00 0.00 46 1003.7
20260902232032 30 360 19.3 0.0 0.00 0.00 0.00 46 1003.6
20260902231536 30 360 19.3 0.0 0.00 0.00 0.00 46 1003.7
20260902231034 30 360 19.3 0.0 0.00 0.00 0.00 46 1003.8
20260902230531 30 360 19.3 0.0 0.00 0.00 0.00 47 1003.8
20260902230031 29 360 19.3 0.0 0.00 0.00 0.00 46 1003.8
20260902225530 30 360 20.9 0.0 0.00 0.00 0.00 44 1003.8
20260902225031 30 360 22.5 0.0 0.00 0.00 0.00 44 1003.7
20260902224530 30 360 22.5 0.0 0.00 0.00 0.00 46 1003.7
20260902223530 30 360 20.9 0.0 0.00 0.00 0.00 43 1003.7
20260902223030 30 360 20.9 0.0 0.00 0.00 0.00 45 1003.7
20260902222530 30 360 20.9 0.0 0.00 0.00 0.00 46 1003.8
20260902222029 30 360 20.9 0.0 0.00 0.00 0.00 46 1003.9
20260902221528 30 360 20.9 0.0 0.00 0.00 0.00 46 1003.8
20260902221028 30 360 20.9 0.0 0.00 0.00 0.00 45 1004.0
20260902220527 30 360 20.9 0.0 0.00 0.00 0.00 45 1003.9
20260902220030 30 360 19.3 0.0 0.00 0.00 0.00 46 1004.0
20260902215526 30 360 19.3 0.0 0.00 0.00 0.00 45 1004.0
20260902215025 30 360 20.9 0.0 0.00 0.00 0.00 46 1004.1
20260902214524 30 360 19.3 0.0 0.00 0.00 0.00 46 1004.3
20260902213523 29 360 17.7 0.0 0.00 0.00 0.00 47 1004.3
20260902213023 29 360 19.3 0.0 0.00 0.00 0.00 47 1004.3
20260902212524 30 360 22.5 0.0 0.00 0.00 0.00 45 1004.4
20260902212024 30 360 22.5 0.0 0.00 0.00 0.00 44 1004.5
20260902211522 31 360 20.9 0.0 0.00 0.00 0.00 45 1004.5
20260902211022 31 360 22.5 0.0 0.00 0.00 0.00 45 1004.5
20260902210522 30 360 22.5 0.0 0.00 0.00 0.00 44 1004.6
20260902210021 31 360 20.9 0.0 0.00 0.00 0.00 45 1004.6
20260902205520 31 360 19.3 0.0 0.00 0.00 0.00 44 1004.8
20260902205021 30 360 20.9 0.0 0.00 0.00 0.00 44 1004.8
20260902204535 30 360 22.5 0.0 0.00 0.00 0.00 45 1005.1
20260902203517 30 360 24.1 0.0 0.00 0.00 0.00 45 1005.1
20260902203018 30 360 24.1 0.0 0.00 0.00 0.00 44 1005.2
20260902202517 30 360 24.1 0.0 0.00 0.00 0.00 45 1005.2
20260902202016 30 360 22.5 0.0 0.00 0.00 0.00 44 1005.2
20260902201526 30 360 22.5 0.0 0.00 0.00 0.00 45 1005.3
20260902201014 30 360 20.9 0.0 0.00 0.00 0.00 45 1005.4
20260902200515 30 360 22.5 0.0 0.00 0.00 0.00 44 1005.5
20260902200013 30 360 24.1 0.0 0.00 0.00 0.00 45 1005.6
20260902195513 30 360 22.5 0.0 0.00 0.00 0.00 45 1005.7
20260902195011 30 360 22.5 0.0 0.00 0.00 0.00 44 1005.7
20260902194511 30 360 20.9 0.0 0.00 0.00 0.00 45 1005.7
20260902193511 30 360 22.5 0.0 0.00 0.00 0.00 43 1005.6
20260902193011 30 360 24.1 0.0 0.00 0.00 0.00 44 1005.7
20260902192511 30 360 22.5 0.0 0.00 0.00 0.00 44 1005.8
20260902192010 30 360 20.9 0.0 0.00 0.00 0.00 44 1005.9
20260902191515 30 360 20.9 0.0 0.00 0.00 0.00 45 1005.9
20260902191011 29 360 20.9 0.0 0.00 0.00 0.00 46 1006.0
20260902190507 29 360 20.9 0.0 0.00 0.00 0.00 46 1006.3
20260902190005 29 360 22.5 0.0 0.00 0.00 0.00 46 1006.3
20260902185505 29 360 22.5 0.0 0.00 0.00 0.00 46 1006.4
20260902185003 29 360 22.5 0.0 0.00 0.00 0.00 47 1006.4
20260902184504 28 360 22.5 0.0 0.00 0.00 0.00 47 1006.5
20260902183503 29 360 22.5 0.0 0.00 0.00 0.00 47 1006.7
20260902183002 28 360 22.5 0.0 0.00 0.00 0.00 48 1006.7
20260902182503 28 360 22.5 0.0 0.00 0.00 0.00 48 1006.9
20260902182100 28 360 22.5 0.0 0.00 0.00 0.00 49 1006.9
20260902181613 28 360 22.5 0.0 0.00 0.00 0.00 49 1006.9
20260902181059 28 124 24.1 0.0 0.00 0.00 0.00 49 1007.1
20260902180557 28 109 24.1 0.0 0.00 0.00 0.00 50 1007.2
20260902180100 28 360 25.7 0.0 0.00 0.00 0.00 50 1007.2
20260902175556 27 360 25.7 0.0 0.00 0.00 0.00 52 1007.2
20260902175054 27 119 24.1 0.0 0.00 0.00 0.00 52 1007.3
20260902174554 27 360 22.5 0.0 0.00 0.00 0.00 53 1007.4
20260902174153 27 124 22.5 0.0 0.00 0.00 0.00 53 1007.6
20260902173552 27 360 22.5 0.0 0.00 0.00 0.00 53 1007.6
20260902173051 27 360 22.5 0.0 0.00 0.00 0.00 54 1007.7
20260902172553 26 360 22.5 0.0 0.00 0.00 0.00 54 1007.8
20260902172049 26 360 20.9 0.0 0.00 0.00 0.00 54 1007.8
20260902171556 26 150 19.3 0.0 0.00 0.00 0.00 55 1008.0
20260902171047 26 360 19.3 0.0 0.00 0.00 0.00 56 1008.0
20260902170545 26 105 19.3 0.0 0.00 0.00 0.00 55 1008.2
20260902170045 26 360 19.3 0.0 0.00 0.00 0.00 55 1008.2
20260902165545 26 360 19.3 0.0 0.00 0.00 0.00 55 1008.3
20260902165043 25 360 19.3 0.0 0.00 0.00 0.00 56 1008.3
20260902164551 25 360 19.3 0.0 0.00 0.00 0.00 56 1008.3
20260902164142 25 360 20.9 0.0 0.00 0.00 0.00 56 1008.4
20260902163542 25 360 20.9 0.0 0.00 0.00 0.00 56 1008.4
20260902163046 24 360 20.9 0.0 0.00 0.00 0.00 56 1008.5
20260902162540 24 360 19.3 0.0 0.00 0.00 0.00 56 1008.5